{"data":{"norad_id":54776,"intl_designator":"2022-175U","name":"STARLINK-5470","alt_names":[],"object_type":"PAYLOAD","status":"ACTIVE","operator":null,"country":"US","launch_date":"2022-12-17","launch_site_code":"AFETR","launch_vehicle":null,"mission":null,"orbit_class":"UNKNOWN","rcs_meters":null,"size_class":null,"mass_kg":null,"dimensions":null,"purposes":["comms"],"wikipedia_slug":null,"has_3d_model":false,"image_url":null,"decayed_at":null,"tle_current":{"epoch":"2026-09-20T22:00:03.000096Z","epoch_age_seconds":53878,"freshness":"FRESH","line1":"1 54776U 22175U   26263.91670139  .00852833  00000+0  35697-2 0  9991","line2":"2 54776  53.1581 229.7319 0001270 122.2889 341.7766 15.82860020  5853","mean_motion":15.8286002,"eccentricity":0.000127,"inclination_deg":53.1581,"raan_deg":229.7319,"arg_perigee_deg":122.2889,"mean_anomaly_deg":341.7766,"bstar":0.0035697,"rev_number":585,"period_min":90.974563878365,"perigee_km":321.50622485355,"apogee_km":323.20815037721,"semimajor_km":6700.4941876154,"source":"CELESTRAK","updated_at":"2026-09-21T09:00:33.123607Z"}}}